Location: Montclair
(37.8322°N, 122.2092°W)
Time: 14:32:05
(UTC+00:00)

IRAS Rocket - Pass Details

Date: 08 September 2024
Orbit: 846 x 876 km, 100.1° (Epoch: 08 October)

Event Time Altitude Azimuth Distance (km) Brightness Sun altitude
Rises 11:58:19 0° 12° (NNE) 3,462 7.9 -21.0°
Reaches altitude 10° 12:00:42 10° 11° (N) 2,516 7.1 -20.6°
Maximum altitude 12:06:17 75° 287° (WNW) 894 4.1 -19.6°
Enters shadow 12:09:40 24° 206° (SSW) 1,689 5.3 -19.0°
